Miscellaneous Local Product
Issued by NWS North Platte, NE

Home | Current Version | Previous Version | Text Only | Print | Product List | Glossary On
Versions: 1 2 3 4 5 6 7 8 9 10 11 12 13 14 15 16 17 18 19 20 21 22 23 24 25 26 27 28 29 30 31 32 33 34 35 36 37 38 39 40 41 42 43 44 45 46 47 48 49 50
221
AXUS43 KLBF 230510
MISLBF


WESTERN AND NORTH CENTRAL NEBRASKA HOURLY WEATHER ROUNDUP
NATIONAL WEATHER SERVICE NORTH PLATTE NE
1200 AM CDT MON OCT 23 2017

NOTE: "FAIR" INDICATES FEW OR NO CLOUDS BELOW 12,000 FEET WITH NO
SIGNIFICANT WEATHER AND/OR OBSTRUCTIONS TO VISIBILITY.

NOTE: STATIONS NOT REPORTING VARIABLES SUCH AS SKY/WEATHER OR
PRESSURE ARE PROVIDED BY RAWS AND APRS NETWORKS AND ARE NOT UNDER
NATIONAL WEATHER SERVICE QUALITY CONTROL.

...OBSERVATIONS IN AND NEAR THE EASTERN PANHANDLE OF NEBRASKA...

CITY           SKY/WX    TMP DP  RH WIND       PRES   REMARKS
PINE RIDGE     CLOUDY    57  33  40 N10       29.98R
GORDON         LGT RAIN  55  32  42 W7        29.96R
CHADRON        MOCLDY    49  29  46 W7        29.98R
ALLIANCE       CLEAR     55  30  38 W16       30.00R
SIDNEY         CLEAR     51  29  42 W13       30.08R
CRESCENT LAKE    N/A     57  31  37 W9          N/A
$$

...OBSERVATIONS IN NORTHERN NEBRASKA AND FAR SOUTHERN SOUTH DAKOTA...

CITY           SKY/WX    TMP DP  RH WIND       PRES   REMARKS
WINNER         FAIR      54  35  48 SW10      29.83S
VALENTINE      CLOUDY    51  35  54 W9        29.89R
THEDFORD       PTCLDY    52  35  52 W5        29.94S
AINSWORTH      CLOUDY    55  36  49 W9        29.88F
O`NEILL        CLOUDY    52  37  56 SW10      29.88S
ORD            CLEAR     51  31  46 SW10      29.89F
BROKEN BOW     CLEAR     48  35  60 W9        29.92F
VALENTINE NWR    N/A     57  33  40 SW9         N/A
HALSEY           N/A     53  31  42 SW6         N/A
BUTTE            N/A     52  34  51 S5          N/A
CHAMBERS         N/A     51  31  45 S3          N/A
EWING            N/A     54  33  45 SW7         N/A
$$

...OBSERVATIONS IN SOUTHWEST NEBRASKA AND FAR NORTHEAST COLORADO...

CITY           SKY/WX    TMP DP  RH WIND       PRES   REMARKS
HOLYOKE        FAIR      45  32  61 W9        30.05S
IMPERIAL       CLEAR     44  31  60 W8        30.02S
OGALLALA       CLEAR     41  33  74 W8        30.01S
NORTH PLATTE   PTCLDY    43  36  76 NW6       29.98R
MCCOOK         CLOUDY    50  28  42 W10       29.99F
LEXINGTON      PTCLDY    52  29  41 W6        29.97S
STAPLETON        N/A     50  35  56 CALM        N/A
GOTHENBURG       N/A     57  28  33 W3          N/A
CALLAWAY         N/A     55  36  48 W3          N/A
$$

...OBSERVATIONS IN CENTRAL LINCOLN COUNTY AREA...

CITY           SKY/WX    TMP DP  RH WIND       PRES   REMARKS
N.P. AIRPORT   PTCLDY    43  36  76 NW6       29.98R
N.P. DOWNTOWN    N/A     47  37  68 CALM        N/A
N.P. SOUTHEAST   N/A     50  35  57 CALM        N/A
N.P. HILLCREST   N/A     51  36  57 NW3         N/A
$$

...SOME OBSERVATIONS FROM AROUND THE REGION...

CITY           SKY/WX    TMP DP  RH WIND       PRES   REMARKS
DENVER         CLOUDY    60  25  26 NW12      30.15R
LIMON          CLOUDY    34  27  75 N5        30.16R WCI  30
ASPEN          CLOUDY    33  28  81 SW9       30.49R WCI  25
LARAMIE        CLOUDY    49  27  42 W21       30.25S
CASPER         CLOUDY    49  30  48 SW17      30.16R
CHEYENNE       CLOUDY    54  26  34 VRB3      30.18R
SCOTTSBLUFF    CLEAR     62  30  29 W20       30.03R
GRAND ISLAND   CLOUDY    56  28  34 SW15      29.94F
OMAHA          PTCLDY    50  36  58 SE12      29.96F
SIOUX FALLS    CLEAR     55  33  43 SW10      29.83F
PIERRE         MOCLDY    53  45  74 NW13      29.86R
RAPID CITY     CLOUDY    57  32  38 NW22G38   29.99R
BISMARCK       CLEAR     56  41  57 W18G26    29.74R
KANSAS CITY    CLEAR     43  39  86 S9        30.04F
HILL CITY      CLEAR     52  29  41 W6        30.01F
WICHITA        PTCLDY    47  42  83 S7        30.07F
DODGE CITY     CLEAR     49  28  44 SW9       30.06F
OKLAHOMA CITY  PTCLDY    48  44  86 S5        30.12F
DALLAS         CLEAR     56  38  50 CALM      30.14F
AMARILLO       CLOUDY    48  35  60 S8        30.14F
$$




USA.gov is the U.S. government's official web portal to all federal, state and local government web resources and services.